SENTINEL-3B

Last updated on Mon Nov 03 2025 00:02:35 GMT+0000 (Coordinated Universal Time)

1 43437U 18039A 25306.17922987 .00000178 00000+0 91615-4 0 9994 2 43437 98.6317 11.9356 0000864 129.0492 231.0766 14.26736588391757
UTC large
Height (km)
Speed (km/s)
/
Latitude / Longitude
Inclination (degrees)
Orbital Period (minutes)
Azimuth
Elevation
Range (km)
Doppler Factor

Next 0 passes for location: London (51.5072 / 0.1276)

Sorry there are no passes over London.